St. Charles, IL

6:09 PM CST on November 17, 2017 (GMT -0600)
Saint Charles County Smartt

Weather History for KSET - March, 2013

Change the Weather History Date:

Monday, March 11, 2013

  Actual Average (KSTL) Record (KSTL)
Temperature  
Mean Temperature 38 °F -  
Max Temperature 44 °F 55 °F 85 °F (1972)
Min Temperature 33 °F 35 °F 8 °F (1948)
Degree Days  
Heating Degree Days 26    
Moisture  
Dew Point 30 °F    
Average Humidity 79    
Maximum Humidity 89    
Minimum Humidity 70    
Precipitation  
Precipitation 0.00 in - - ()
Sea Level Pressure  
Sea Level Pressure 29.82 in    
Wind  
Wind Speed 16 mph (West)    
Max Wind Speed 22 mph    
Max Gust Speed 30 mph    
Visibility 9 miles    
Events Rain    
Averages and records for this station are not official NWS values.
T = Trace of Precipitation, MM = Missing Value Source: NWS Daily Summary

Daily Weather History Graph

Daily Weather History Graph

Search for Another Location

Airport or City:

Trip Planner

Search our weather history database for the weather conditions in past years. The results will help you decide how hot, cold, wet, or windy it might be!

Date:

Astronomy

Mar. 11, 2013 Rise Set
Actual Time 7:18 AM CDT 7:05 PM CDT
Civil Twilight 6:52 AM CDT 7:31 PM CDT
Nautical Twilight 6:21 AM CDT 8:02 PM CDT
Astronomical Twilight 5:50 AM CDT 8:33 PM CDT
Moon 6:52 AM CDT (3/11) 7:16 PM CDT (3/11)
Length of Visible Light 12h 39m
Length of Day
11h 46m
Waning Crescent, 0% of the Moon is Illuminated
Mar 11
Waning Crescent
Mar 11
New
Mar 19
First Quarter
Mar 27
Full
Apr 2
Last Quarter

Hourly Weather History & Observations

Time (CDT) Temp. Windchill Dew Point Humidity Pressure Visibility Wind Dir Wind Speed Gust Speed Precip Events Conditions
12:34 AM 44.6 °F 36.4 °F 39.2 °F 81% 29.73 in 10.0 mi West 20.7 mph 26.5 mph N/A   Overcast
12:52 AM 44.6 °F 38.1 °F 39.2 °F 81% 29.73 in 10.0 mi West 13.8 mph - N/A   Overcast
12:54 AM 44.1 °F 37.1 °F 39.0 °F 82% 29.73 in 10.0 mi West 15.0 mph - N/A   Overcast
1:54 AM 43.0 °F 37.2 °F 37.0 °F 80% 29.74 in 10.0 mi WSW 10.4 mph 20.7 mph N/A   Overcast
2:03 AM 42.8 °F 36.2 °F 37.4 °F 81% 29.74 in 10.0 mi West 12.7 mph 19.6 mph N/A   Overcast
2:28 AM 41.0 °F 32.5 °F 37.4 °F 87% 29.74 in 10.0 mi West 17.3 mph - N/A   Overcast
2:54 AM 39.9 °F 31.1 °F 35.1 °F 83% 29.74 in 10.0 mi West 17.3 mph 23.0 mph N/A   Overcast
3:54 AM 37.9 °F 28.5 °F 34.0 °F 86% 29.74 in 10.0 mi West 17.3 mph 23.0 mph N/A   Overcast
4:54 AM 36.0 °F 26.7 °F 30.9 °F 82% 29.74 in 10.0 mi West 15.0 mph 24.2 mph N/A   Overcast
5:54 AM 35.1 °F 25.5 °F 30.0 °F 82% 29.77 in 10.0 mi West 15.0 mph 23.0 mph N/A   Overcast
6:54 AM 35.1 °F 26.4 °F 30.0 °F 82% 29.77 in 10.0 mi West 12.7 mph - N/A   Overcast
7:54 AM 34.0 °F 22.7 °F 28.9 °F 82% 29.77 in 10.0 mi West 19.6 mph 23.0 mph N/A   Overcast
8:50 AM 33.8 °F 23.2 °F 28.4 °F 81% 29.79 in 5.0 mi West 17.3 mph - 0.00 in Rain Light Rain
8:54 AM 33.1 °F 23.0 °F 30.0 °F 89% 29.79 in 5.0 mi WSW 15.0 mph - 0.00 in Rain Light Rain
9:31 AM 33.8 °F 24.8 °F 30.2 °F 87% 29.79 in 4.0 mi West 12.7 mph - 0.00 in Rain Light Rain
9:54 AM 33.1 °F 22.6 °F 30.0 °F 89% 29.79 in 7.0 mi West 16.1 mph - 0.00 in   Overcast
10:42 AM 33.8 °F 23.2 °F 28.4 °F 81% 29.79 in 8.0 mi West 17.3 mph 25.3 mph N/A   Overcast
10:54 AM 33.1 °F 22.2 °F 28.9 °F 85% 29.80 in 7.0 mi West 17.3 mph - 0.00 in Rain Light Rain
11:23 AM 33.8 °F 23.5 °F 28.4 °F 81% 29.80 in 10.0 mi West 16.1 mph 25.3 mph 0.00 in   Overcast
11:38 AM 33.8 °F 22.2 °F 28.4 °F 81% 29.80 in 10.0 mi West 20.7 mph 26.5 mph 0.00 in   Overcast
11:52 AM 33.8 °F 21.9 °F 26.6 °F 75% 29.80 in 10.0 mi West 21.9 mph 29.9 mph 0.00 in   Overcast
11:54 AM 33.1 °F 21.2 °F 27.0 °F 78% 29.80 in 10.0 mi West 20.7 mph 29.9 mph 0.00 in   Overcast
12:42 PM 33.8 °F 22.8 °F 28.4 °F 81% 29.80 in 10.0 mi West 18.4 mph 25.3 mph N/A   Overcast
12:54 PM 33.1 °F 21.9 °F 28.0 °F 82% 29.82 in 10.0 mi West 18.4 mph - N/A   Overcast
1:13 PM 33.8 °F 23.2 °F 26.6 °F 75% 29.80 in 10.0 mi West 17.3 mph 27.6 mph N/A   Overcast
1:54 PM 34.0 °F 23.0 °F 28.0 °F 79% 29.82 in 10.0 mi West 18.4 mph 25.3 mph N/A   Overcast
2:54 PM 34.0 °F 24.6 °F 27.0 °F 75% 29.83 in 10.0 mi West 13.8 mph - N/A   Overcast
3:54 PM 35.1 °F 25.2 °F 27.0 °F 72% 29.84 in 10.0 mi West 16.1 mph 25.3 mph N/A   Overcast
4:54 PM 35.1 °F 24.5 °F 27.0 °F 72% 29.86 in 10.0 mi WNW 18.4 mph 21.9 mph N/A   Overcast
6:54 PM 35.1 °F 25.9 °F 26.1 °F 70% 29.91 in 10.0 mi West 13.8 mph - N/A   Overcast
7:36 PM 35.6 °F 30.7 °F 26.6 °F 70% 29.91 in 10.0 mi WSW 5.8 mph - N/A   Overcast
7:49 PM 35.6 °F 29.9 °F 26.6 °F 70% 29.91 in 10.0 mi West 6.9 mph - N/A   Overcast
7:54 PM 35.1 °F 28.6 °F 27.0 °F 72% 29.93 in 10.0 mi West 8.1 mph - N/A   Overcast
8:13 PM 35.6 °F 28.6 °F 26.6 °F 70% 29.93 in 10.0 mi West 9.2 mph - N/A   Overcast
8:26 PM 35.6 °F 26.2 °F 26.6 °F 70% 29.94 in 10.0 mi West 15.0 mph - N/A   Overcast
8:54 PM 35.1 °F 26.4 °F 26.1 °F 70% 29.96 in 10.0 mi WNW 12.7 mph - N/A   Overcast
9:54 PM 35.1 °F 26.9 °F 26.1 °F 70% 29.96 in 10.0 mi WNW 11.5 mph - N/A   Overcast
11:54 PM 35.1 °F 25.5 °F 26.1 °F 70% 30.01 in 10.0 mi West 15.0 mph 19.6 mph N/A   Overcast